E1057 Weather Reports


time (UTC)temp
C
wind
direction
speed
KPH
gust
KPH
rain 1hr
cm
rain 24hr
cm
rain mn
cm
humidity
%
barometer
mb
20260906045028 20 5 0.0 0.0 0.00 0.00 0.00 13 1009.0
20260906044555 20 5 0.0 0.0 0.00 0.00 0.00 13 1009.1
20260906044031 20 5 0.0 0.0 0.00 0.00 0.00 14 1009.1
20260906043542 20 5 0.0 0.0 0.00 0.00 0.00 15 1009.1
20260906043007 20 5 0.0 0.0 0.00 0.00 0.00 16 1009.0
20260906042546 20 5 0.0 0.0 0.00 0.00 0.00 16 1009.0
20260906042011 20 5 0.0 0.0 0.00 0.00 0.00 16 1009.0
20260906041542 20 5 0.0 0.0 0.00 0.00 0.00 17 1009.0
20260906041003 20 5 0.0 0.0 0.00 0.00 0.00 16 1009.0
20260906040533 20 5 0.0 0.0 0.00 0.00 0.00 16 1009.0
20260906040053 20 5 0.0 0.0 0.00 0.00 0.00 16 1009.4
20260906035521 20 5 0.0 0.0 0.00 0.00 0.00 17 1009.4
20260906035050 20 5 0.0 0.0 0.00 0.00 0.00 17 1009.4
20260906034526 20 5 0.0 0.0 0.00 0.00 0.00 18 1009.4
20260906034051 20 5 0.0 0.0 0.00 0.00 0.00 18 1009.4
20260906033523 20 5 0.0 0.0 0.00 0.00 0.00 18 1009.4
20260906033051 20 5 0.0 0.0 0.00 0.00 0.00 20 1009.6
20260906032515 20 5 0.0 0.0 0.00 0.00 0.00 21 1009.6
20260906032047 20 5 0.0 0.0 0.00 0.00 0.00 22 1009.6
20260906031517 20 5 0.0 0.0 0.00 0.00 0.00 24 1009.5
20260906031040 20 5 0.0 0.0 0.00 0.00 0.00 25 1009.5
20260906030509 20 5 0.0 0.0 0.00 0.00 0.00 25 1009.5
20260906030038 20 5 0.0 0.0 0.00 0.00 0.00 26 1009.4
20260906025503 20 5 0.0 0.0 0.00 0.00 0.00 26 1009.4
20260906025034 20 5 0.0 0.0 0.00 0.00 0.00 27 1009.4
20260906024555 21 5 0.0 0.0 0.00 0.00 0.00 27 1009.4
20260906024026 21 5 0.0 0.0 0.00 0.00 0.00 28 1009.4
20260906023547 21 5 0.0 0.0 0.00 0.00 0.00 29 1009.4
20260906023012 21 5 0.0 0.0 0.00 0.00 0.00 30 1008.9
20260906022544 21 5 0.0 0.0 0.00 0.00 0.00 32 1008.9
20260906022012 21 5 0.0 0.0 0.00 0.00 0.00 33 1008.9
20260906021542 21 5 0.0 0.0 0.00 0.00 0.00 34 1008.7
20260906021009 21 5 0.0 0.0 0.00 0.00 0.00 34 1008.7
20260906020539 21 5 0.0 0.0 0.00 0.00 0.00 36 1008.7
20260906020005 21 5 0.0 0.0 0.00 0.00 0.00 37 1008.7
20260906015537 21 5 0.0 0.0 0.00 0.00 0.00 39 1008.7
20260906015005 21 5 0.0 0.0 0.00 0.00 0.00 39 1008.7
20260906014536 21 5 0.0 0.0 0.00 0.00 0.00 40 1008.8
20260906014057 21 5 0.0 0.0 0.00 0.00 0.00 41 1008.8
20260906013531 21 5 0.0 0.0 0.00 0.00 0.00 43 1008.8
20260906013103 21 5 0.0 0.0 0.00 0.00 0.00 44 1008.7
20260906012538 21 5 0.0 0.0 0.00 0.00 0.00 46 1008.7
20260906012100 21 5 0.0 0.0 0.00 0.00 0.00 48 1008.7
20260906011536 21 5 0.0 0.0 0.00 0.00 0.00 48 1008.6
20260906011058 21 5 0.0 0.0 0.00 0.00 0.00 50 1008.6
20260906010531 22 5 0.0 0.0 0.00 0.00 0.00 51 1008.6
20260906010055 22 5 0.0 0.0 0.00 0.00 0.00 52 1008.2
20260906005526 22 5 0.0 0.0 0.00 0.00 0.00 51 1008.2
20260906005047 22 5 0.0 0.0 0.00 0.00 0.00 51 1008.2
20260906004514 22 5 0.0 0.0 0.00 0.00 0.00 54 1008.0
20260906004044 22 5 0.0 0.0 0.00 0.00 0.00 56 1008.0
20260906003518 22 5 0.0 0.0 0.00 0.00 0.00 54 1008.0
20260906003043 22 5 0.0 0.0 0.00 0.00 0.00 55 1007.9
20260906002512 22 5 0.0 0.0 0.00 0.00 0.00 57 1007.9
20260906002041 22 5 0.0 0.0 0.00 0.00 0.00 59 1007.9
20260906001507 22 5 0.0 0.0 0.00 0.00 0.00 60 1007.7
20260906001029 22 5 0.0 0.0 0.00 0.00 0.00 57 1007.7
20260906000557 22 5 0.0 0.0 0.00 0.00 0.00 55 1007.7
20260906000027 22 5 0.0 0.0 0.00 0.00 0.00 58 1007.5
20260905235550 22 5 0.0 0.0 0.00 0.00 0.00 58 1007.5
20260905235020 22 5 0.0 0.0 0.00 0.00 0.00 61 1007.5
20260905234545 22 5 0.0 0.0 0.00 0.00 0.00 61 1007.4
20260905234019 22 5 0.0 0.0 0.00 0.00 0.00 60 1007.4
20260905233543 22 5 0.0 0.0 0.00 0.00 0.00 62 1007.4
20260905233011 23 5 0.0 0.0 0.00 0.00 0.00 62 1007.3
20260905232541 23 5 0.0 0.0 0.00 0.00 0.00 61 1007.3
20260905232006 23 5 0.0 0.0 0.00 0.00 0.00 58 1007.3
20260905231539 23 5 0.0 0.0 0.00 0.00 0.00 58 1007.2
20260905231021 23 5 0.0 0.0 0.00 0.00 0.00 55 1007.2
20260905230545 23 5 0.0 0.0 0.00 0.00 0.00 57 1007.2
20260905230011 23 5 0.0 0.0 0.00 0.00 0.00 58 1007.2
20260905225542 23 5 0.0 0.0 0.00 0.00 0.00 57 1007.2
20260905225010 23 5 0.0 0.0 0.00 0.00 0.00 60 1007.2
20260905224600 23 5 0.0 0.0 0.00 0.00 0.00 61 1007.2
20260905224016 23 5 0.0 0.0 0.00 0.00 0.00 63 1007.2
20260905223533 23 5 0.0 0.0 0.00 0.00 0.00 65 1007.2
20260905223055 23 5 0.0 0.0 0.00 0.00 0.00 66 1007.2
20260905222523 23 5 0.0 0.0 0.00 0.00 0.00 67 1007.2
20260905222054 23 5 0.0 0.0 0.00 0.00 0.00 68 1007.2
20260905221524 23 5 0.0 0.0 0.00 0.00 0.00 69 1007.1
20260905221053 23 5 0.0 0.0 0.00 0.00 0.00 71 1007.1
20260905220518 23 5 0.0 1.6 0.00 0.00 0.00 71 1007.1
20260905220050 23 5 0.0 1.6 0.00 0.00 0.00 71 1007.5
20260905215519 23 5 0.0 0.0 0.00 0.00 0.00 72 1007.5
20260905215054 23 5 0.0 0.0 0.00 0.00 0.00 73 1007.5
20260905214514 23 5 0.0 0.0 0.00 0.00 0.00 73 1007.6
20260905214046 23 5 0.0 0.0 0.00 0.00 0.00 74 1007.6
20260905213515 23 5 0.0 0.0 0.00 0.00 0.00 74 1007.6
20260905213031 23 5 0.0 0.0 0.00 0.00 0.00 74 1007.9
20260905212557 24 5 0.0 0.0 0.00 0.00 0.00 74 1007.9
20260905212020 24 5 0.0 0.0 0.00 0.00 0.00 74 1007.9
20260905211603 24 5 0.0 0.0 0.00 0.00 0.00 75 1008.0
20260905211017 24 5 0.0 0.0 0.00 0.00 0.00 74 1008.0
20260905210538 24 5 0.0 0.0 0.00 0.00 0.00 74 1008.0
20260905210117 24 5 0.0 0.0 0.00 0.00 0.00 75 1008.0
20260905205532 24 5 0.0 0.0 0.00 0.00 0.00 75 1008.0
20260905205056 24 5 0.0 0.0 0.00 0.00 0.00 75 1008.0
20260905204531 24 5 0.0 0.0 0.00 0.00 0.00 75 1008.1
20260905204100 24 5 0.0 0.0 0.00 0.00 0.00 75 1008.1
20260905203522 25 5 0.0 0.0 0.00 0.00 0.00 75 1008.1
20260905203113 25 5 0.0 0.0 0.00 0.00 0.00 76 1008.2
20260905202531 25 5 0.0 0.0 0.00 0.00 0.00 76 1008.2
20260905202057 25 5 0.0 0.0 0.00 0.00 0.00 75 1008.2
20260905201539 25 5 0.0 0.0 0.00 0.00 0.00 75 1008.4
20260905201058 25 5 0.0 0.0 0.00 0.00 0.00 76 1008.4
20260905200530 25 5 0.0 0.0 0.00 0.00 0.00 72 1008.4
20260905200058 25 5 0.0 0.0 0.00 0.00 0.00 74 1008.5
20260905195520 25 5 0.0 0.0 0.00 0.00 0.00 75 1008.5
20260905195048 25 5 0.0 0.0 0.00 0.00 0.00 75 1008.5
20260905194523 24 5 0.0 0.0 0.00 0.00 0.00 75 1008.6
20260905194044 24 5 0.0 0.0 0.00 0.00 0.00 75 1008.6
20260905193522 24 5 0.0 0.0 0.00 0.00 0.00 75 1008.6
20260905193050 24 5 0.0 0.0 0.00 0.00 0.00 74 1008.8
20260905192516 24 5 0.0 0.0 0.00 0.00 0.00 70 1008.8
20260905192045 23 5 0.0 0.0 0.00 0.00 0.00 68 1008.8
20260905191523 23 5 0.0 0.0 0.00 0.00 0.00 71 1009.1
20260905191049 23 5 0.0 0.0 0.00 0.00 0.00 68 1009.1
20260905190513 23 5 0.0 0.0 0.00 0.00 0.00 71 1009.1
20260905190044 23 5 0.0 0.0 0.00 0.00 0.00 69 1009.2
20260905185517 23 5 0.0 0.0 0.00 0.00 0.00 72 1009.2
20260905185045 23 5 0.0 0.0 0.00 0.00 0.00 72 1009.2
20260905184519 23 5 0.0 0.0 0.00 0.00 0.00 73 1009.7
20260905184054 23 5 0.0 0.0 0.00 0.00 0.00 75 1009.7
20260905183521 23 5 0.0 0.0 0.00 0.00 0.00 74 1009.7
20260905183055 23 5 0.0 0.0 0.00 0.00 0.00 75 1008.9
20260905182526 24 5 0.0 0.0 0.00 0.00 0.00 74 1008.9
20260905182054 24 5 0.0 0.0 0.00 0.00 0.00 73 1008.9
20260905181538 25 5 0.0 0.0 0.00 0.00 0.00 76 1009.0
20260905181007 25 5 0.0 0.0 0.00 0.00 0.00 77 1009.0
20260905180538 26 5 0.0 0.0 0.00 0.00 0.00 76 1009.0
20260905180010 26 5 0.0 0.0 0.00 0.00 0.00 74 1008.9
20260905175547 27 5 0.0 0.0 0.00 0.00 0.00 71 1008.9
20260905175012 27 5 0.0 6.4 0.00 0.00 0.00 71 1008.9
20260905174548 28 5 0.0 6.4 0.00 0.00 0.00 72 1008.8
20260905174008 28 9 0.0 6.4 0.00 0.00 0.00 71 1008.8
20260905173535 29 9 0.0 6.4 0.00 0.00 0.00 70 1008.8
20260905173058 30 5 0.0 4.8 0.00 0.00 0.00 69 1008.8
20260905172528 30 5 0.0 4.8 0.00 0.00 0.00 66 1008.8
20260905172057 30 5 0.0 3.2 0.00 0.00 0.00 67 1008.8
20260905171535 30 5 0.0 1.6 0.00 0.00 0.00 71 1008.9
20260905171043 30 5 0.0 3.2 0.00 0.00 0.00 71 1008.9
20260905170510 30 5 0.0 3.2 0.00 0.00 0.00 66 1008.9
20260905170037 30 5 0.0 3.2 0.00 0.00 0.00 71 1008.9
20260905165503 30 5 0.0 6.4 0.00 0.00 0.00 72 1008.9
20260905165031 30 5 0.0 6.4 0.00 0.00 0.00 72 1008.9
20260905164554 30 5 0.0 4.8 0.00 0.00 0.00 72 1009.3
20260905164028 30 5 0.0 3.2 0.00 0.00 0.00 72 1009.3
20260905163555 29 5 0.0 3.2 0.00 0.00 0.00 74 1009.3
20260905163028 29 5 0.0 3.2 0.00 0.00 0.00 71 1009.6
20260905162550 30 5 0.0 4.8 0.00 0.00 0.00 69 1009.6
20260905162023 30 5 3.2 4.8 0.00 0.00 0.00 67 1009.6
20260905161549 30 5 0.0 8.0 0.00 0.00 0.00 70 1009.7
20260905161015 29 5 0.0 8.0 0.00 0.00 0.00 70 1009.7
20260905160539 28 348 0.0 0.0 0.00 0.00 0.00 71 1009.7
20260905160010 28 341 0.0 0.0 0.00 0.00 0.00 71 1009.7
20260905155537 28 341 0.0 0.0 0.00 0.00 0.00 74 1009.7
20260905155100 28 341 0.0 0.0 0.00 0.00 0.00 74 1009.7
20260905155003 28 341 0.0 0.0 0.00 0.00 0.00 74 1009.7
20260905154533 28 341 0.0 0.0 0.00 0.00 0.00 74 1009.8
20260905154059 28 341 0.0 0.0 0.00 0.00 0.00 74 1009.8
20260905153531 28 341 0.0 0.0 0.00 0.00 0.00 73 1009.8
20260905153055 28 341 0.0 0.0 0.00 0.00 0.00 74 1009.8
20260905152526 28 341 0.0 0.0 0.00 0.00 0.00 73 1009.8
20260905152052 28 341 0.0 0.0 0.00 0.00 0.00 73 1009.8
20260905151523 27 341 0.0 0.0 0.00 0.00 0.00 73 1009.9
20260905151050 27 341 0.0 0.0 0.00 0.00 0.00 74 1009.9
20260905150513 27 341 0.0 0.0 0.00 0.00 0.00 74 1009.9
20260905150041 27 341 0.0 0.0 0.00 0.00 0.00 73 1010.1
20260905145506 27 341 0.0 0.0 0.00 0.00 0.00 73 1010.1
20260905145036 27 341 0.0 0.0 0.00 0.00 0.00 73 1010.1
20260905144502 27 341 0.0 0.0 0.00 0.00 0.00 70 1010.2
20260905144033 26 341 0.0 0.0 0.00 0.00 0.00 70 1010.2
20260905143559 26 341 0.0 0.0 0.00 0.00 0.00 73 1010.2
20260905143031 26 341 0.0 0.0 0.00 0.00 0.00 71 1010.3
20260905142557 26 341 0.0 0.0 0.00 0.00 0.00 71 1010.3
20260905142030 26 341 0.0 0.0 0.00 0.00 0.00 69 1010.3
20260905141600 26 341 0.0 0.0 0.00 0.00 0.00 69 1010.7
20260905141033 25 341 0.0 0.0 0.00 0.00 0.00 66 1010.7
20260905140600 25 341 0.0 0.0 0.00 0.00 0.00 59 1010.7
20260905140501 25 341 0.0 0.0 0.00 0.00 0.00 60 1010.7
20260905140038 25 341 0.0 0.0 0.00 0.00 0.00 47 1010.8
20260905135501 24 341 0.0 0.0 0.00 0.00 0.00 35 1010.8
20260905135031 23 341 0.0 0.0 0.00 0.00 0.00 32 1010.8
20260905134605 23 341 0.0 0.0 0.00 0.00 0.00 10 1011.0
20260905134501 23 341 0.0 0.0 0.00 0.00 0.00 7 1011.0
20260905134026 23 341 0.0 0.0 0.00 0.00 0.00 100 1011.0
20260905133550 22 341 0.0 0.0 0.00 0.00 0.00 100 1011.0
20260905133011 22 341 0.0 0.0 0.00 0.00 0.00 100 1011.1
20260905132539 21 341 0.0 0.0 0.00 0.00 0.00 1 1011.1
20260905132009 21 341 0.0 0.0 0.00 0.00 0.00 1 1011.1
20260905131538 21 341 0.0 0.0 0.00 0.00 0.00 1 1011.2
20260905131016 21 341 0.0 0.0 0.00 0.00 0.00 2 1011.2
20260905130541 21 341 0.0 0.0 0.00 0.00 0.00 2 1011.2
20260905130009 21 341 0.0 0.0 0.00 0.00 0.00 2 1011.1
20260905125537 21 341 0.0 0.0 0.00 0.00 0.00 2 1011.1
20260905125100 21 341 0.0 0.0 0.00 0.00 0.00 3 1011.1
20260905124537 21 341 0.0 0.0 0.00 0.00 0.00 3 1011.0
20260905124055 20 341 0.0 0.0 0.00 0.00 0.00 3 1011.0
20260905123517 20 341 0.0 0.0 0.00 0.00 0.00 3 1011.0
20260905123046 20 341 0.0 0.0 0.00 0.00 0.00 4 1011.0
20260905122510 20 341 0.0 0.0 0.00 0.00 0.00 4 1011.0
20260905122042 20 341 0.0 0.0 0.00 0.00 0.00 4 1011.0
20260905121515 20 341 0.0 0.0 0.00 0.00 0.00 5 1010.9
20260905121041 20 341 0.0 0.0 0.00 0.00 0.00 5 1010.9
20260905120505 20 341 0.0 0.0 0.00 0.00 0.00 5 1010.9
20260905120025 20 341 0.0 0.0 0.00 0.00 0.00 5 1010.6
20260905115549 20 341 0.0 0.0 0.00 0.00 0.00 5 1010.6
20260905115021 20 341 0.0 0.0 0.00 0.00 0.00 6 1010.6
20260905114545 20 341 0.0 0.0 0.00 0.00 0.00 6 1010.5
20260905114009 20 341 0.0 0.0 0.00 0.00 0.00 6 1010.5
20260905113541 20 341 0.0 0.0 0.00 0.00 0.00 7 1010.5
20260905113007 20 341 0.0 0.0 0.00 0.00 0.00 7 1010.4
20260905112537 20 341 0.0 0.0 0.00 0.00 0.00 6 1010.4
20260905112004 20 341 0.0 0.0 0.00 0.00 0.00 7 1010.4
20260905111539 20 341 0.0 0.0 0.00 0.00 0.00 7 1010.0
20260905111015 20 341 0.0 0.0 0.00 0.00 0.00 7 1010.0
20260905110544 20 341 0.0 0.0 0.00 0.00 0.00 7 1010.0
20260905110021 20 341 0.0 0.0 0.00 0.00 0.00 7 1009.9
20260905105551 20 341 0.0 0.0 0.00 0.00 0.00 7 1009.9
20260905105031 20 341 0.0 0.0 0.00 0.00 0.00 7 1009.9
20260905104557 20 341 0.0 0.0 0.00 0.00 0.00 8 1009.8
20260905104025 20 341 0.0 0.0 0.00 0.00 0.00 8 1009.8
20260905103557 20 341 0.0 0.0 0.00 0.00 0.00 9 1009.8
20260905103028 20 341 0.0 0.0 0.00 0.00 0.00 9 1009.7
20260905102551 20 341 0.0 0.0 0.00 0.00 0.00 9 1009.7
20260905102015 20 341 0.0 0.0 0.00 0.00 0.00 9 1009.7
20260905101547 20 341 0.0 0.0 0.00 0.00 0.00 10 1009.6
20260905101054 20 341 0.0 0.0 0.00 0.00 0.00 10 1009.6
20260905100525 20 341 0.0 0.0 0.00 0.00 0.00 11 1009.6
20260905100054 20 341 0.0 0.0 0.00 0.00 0.00 11 1009.4
20260905095520 20 341 0.0 0.0 0.00 0.00 0.00 11 1009.4
20260905095049 20 341 0.0 0.0 0.00 0.00 0.00 11 1009.4
20260905094517 20 341 0.0 0.0 0.00 0.00 0.00 11 1009.5
20260905094042 20 341 0.0 0.0 0.00 0.00 0.00 11 1009.5
20260905093517 20 341 0.0 0.0 0.00 0.00 0.00 11 1009.5
20260905093049 20 341 0.0 0.0 0.00 0.00 0.00 10 1009.5
20260905092524 20 341 0.0 0.0 0.00 0.00 0.00 10 1009.5
20260905092051 20 341 0.0 0.0 0.00 0.00 0.00 10 1009.5
20260905091544 20 341 0.0 0.0 0.00 0.00 0.00 11 1009.6
20260905091049 20 341 0.0 0.0 0.00 0.00 0.00 11 1009.6
20260905090524 20 341 0.0 0.0 0.00 0.00 0.00 11 1009.6
20260905090117 20 341 0.0 0.0 0.00 0.00 0.00 12 1009.8
20260905085524 20 341 0.0 0.0 0.00 0.00 0.00 12 1009.8
20260905085052 20 341 0.0 0.0 0.00 0.00 0.00 12 1009.8
20260905084527 20 341 0.0 0.0 0.00 0.00 0.00 12 1009.9
20260905084053 20 341 0.0 0.0 0.00 0.00 0.00 13 1009.9
20260905083526 20 341 0.0 0.0 0.00 0.00 0.00 13 1009.9
20260905083052 20 341 0.0 0.0 0.00 0.00 0.00 13 1010.1
20260905082524 20 341 0.0 0.0 0.00 0.00 0.00 13 1010.1
20260905082045 20 341 0.0 0.0 0.00 0.00 0.00 13 1010.1
20260905081508 20 341 0.0 0.0 0.00 0.00 0.00 14 1010.2
20260905081036 20 341 0.0 0.0 0.00 0.00 0.00 14 1010.2
20260905080504 20 341 0.0 0.0 0.00 0.00 0.00 15 1010.2
20260905080047 20 341 0.0 0.0 0.00 0.00 0.00 15 1010.4
20260905075510 20 341 0.0 0.0 0.00 0.00 0.00 15 1010.4
20260905075038 20 341 0.0 0.0 0.00 0.00 0.00 16 1010.4
20260905074524 20 341 0.0 0.0 0.00 0.00 0.00 16 1010.4
20260905074049 20 341 0.0 0.0 0.00 0.00 0.00 17 1010.4
20260905073512 20 341 0.0 0.0 0.00 0.00 0.00 17 1010.4
20260905073043 20 341 0.0 0.0 0.00 0.00 0.00 17 1010.4
20260905072506 20 341 0.0 0.0 0.00 0.00 0.00 18 1010.4
20260905072041 20 341 0.0 0.0 0.00 0.00 0.00 19 1010.4
20260905071502 20 341 0.0 0.0 0.00 0.00 0.00 19 1010.4
20260905071034 20 341 0.0 0.0 0.00 0.00 0.00 20 1010.4
20260905070600 20 341 0.0 0.0 0.00 0.00 0.00 20 1010.4
20260905070034 21 341 0.0 0.0 0.00 0.00 0.00 20 1010.7
20260905065558 21 341 0.0 0.0 0.00 0.00 0.00 20 1010.7
20260905065502 21 341 0.0 0.0 0.00 0.00 0.00 20 1010.7
20260905065030 21 341 0.0 0.0 0.00 0.00 0.00 20 1010.7
20260905064555 21 341 0.0 0.0 0.00 0.00 0.00 20 1010.9
20260905064033 21 341 0.0 0.0 0.00 0.00 0.00 19 1010.9
20260905063550 21 341 0.0 0.0 0.00 0.00 0.00 20 1010.9
20260905063024 21 341 0.0 0.0 0.00 0.00 0.00 19 1010.9
20260905062546 21 341 0.0 0.0 0.00 0.00 0.00 21 1010.9
20260905062008 21 341 0.0 0.0 0.00 0.00 0.00 22 1010.9
20260905061552 21 341 0.0 0.0 0.00 0.00 0.00 23 1010.9
20260905061052 21 341 0.0 0.0 0.00 0.00 0.00 24 1010.9
20260905060528 21 341 0.0 0.0 0.00 0.00 0.00 25 1010.9
20260905060059 21 341 0.0 0.0 0.00 0.00 0.00 25 1010.9
20260905055522 21 341 0.0 0.0 0.00 0.00 0.00 26 1010.9
20260905055049 21 341 0.0 0.0 0.00 0.00 0.00 27 1010.9
20260905054516 21 341 0.0 0.0 0.00 0.00 0.00 27 1011.1
20260905054040 21 341 0.0 0.0 0.00 0.00 0.00 27 1011.1
20260905053516 21 341 0.0 0.0 0.00 0.00 0.00 27 1011.1
20260905053046 21 341 0.0 0.0 0.00 0.00 0.00 26 1011.1
20260905052514 21 341 0.0 0.0 0.00 0.00 0.00 25 1011.1
20260905052044 21 341 0.0 0.0 0.00 0.00 0.00 25 1011.1
20260905051513 21 341 0.0 0.0 0.00 0.00 0.00 25 1011.3
20260905051042 21 341 0.0 0.0 0.00 0.00 0.00 26 1011.3
20260905050516 21 341 0.0 0.0 0.00 0.00 0.00 26 1011.3
20260905050042 21 341 0.0 0.0 0.00 0.00 0.00 27 1010.8
20260905045509 21 341 0.0 0.0 0.00 0.00 0.00 27 1010.8